Wind_Speed
3 2 5 6 4 6 8 8 8 8 10 9 8 8 10 9 8 7 9 8 10 11 10 8 5 6 7 9 4 10 10 9 12 12 12 11 13 12 8 1 5 9 6 6 6
5 3 4 7 6 5 7 8 7 9 10 9 8 8 9 10 11 12 12 11 12 14 11 11 6 3 1 5 7 6 9 12 10 10 7 14 15 14 8 4 9 12 11 9 8
8 5 4 5 8 7 6 7 8 9 9 9 8 8 9 10 12 14 13 12 13 16 13 13 10 6 8 7 4 7 8 9 16 14 18 17 17 16 11 8 9 10 11 9 7
10 8 6 5 8 8 8 8 9 11 10 10 8 9 8 8 12 15 14 15 17 19 18 16 13 14 13 9 5 6 11 14 17 14 16 18 17 17 14 12 10 8 8 8 7
11 10 8 7 7 10 10 9 10 12 12 11 9 9 7 7 13 16 15 15 16 17 16 15 16 11 13 12 8 7 12 15 17 13 14 18 18 17 16 13 11 9 12 13 10
12 12 11 9 8 10 12 11 10 12 13 12 10 8 8 9 12 15 15 13 10 12 12 15 10 11 11 12 11 14 14 11 16 16 15 17 18 16 17 13 14 12 13 13 14
14 14 13 12 10 11 13 14 13 12 14 13 11 11 10 10 11 16 15 13 10 13 21 19 16 13 18 13 17 21 14 17 16 15 15 15 14 12 14 12 10 9 13 13 13
16 16 15 15 13 12 15 17 15 14 14 14 13 13 11 11 12 15 19 14 13 12 13 17 19 14 13 15 20 15 18 18 16 15 13 12 10 7 7 9 6 7 10 12 20
22 19 18 17 16 15 16 19 19 17 16 15 14 14 14 12 11 12 16 14 13 11 13 15 13 16 11 16 14 12 10 14 14 15 11 5 3 6 4 5 5 5 7 8 8
27 26 23 20 19 17 17 20 23 21 19 17 16 16 14 10 9 11 12 12 10 15 14 11 13 8 9 11 14 12 9 12 10 9 9 6 8 9 7 2 1 2 3 7 12
31 32 30 28 24 21 19 21 24 24 22 20 18 16 12 11 12 9 10 11 9 9 13 13 9 10 7 5 6 11 10 9 6 5 3 3 7 10 8 5 2 4 2 3 5
28 29 31 33 31 27 22 19 26 27 27 25 22 19 19 16 16 14 13 10 11 10 9 12 13 11 9 7 6 7 7 8 9 4 2 1 11 16 13 8 3 4 2 2 1
31 30 29 30 31 33 27 24 26 29 29 29 27 24 22 20 19 17 16 16 13 12 12 14 13 11 10 10 6 7 9 8 8 7 4 4 1 10 10 10 3 4 8 4 7
37 35 32 31 30 30 30 29 28 29 29 31 30 29 26 24 23 20 19 18 17 15 16 17 13 13 11 11 7 7 9 10 9 8 5 7 7 2 11 14 7 7 9 3 4
39 38 37 35 33 32 32 32 32 30 31 32 33 33 29 28 26 24 23 22 19 19 17 16 15 13 12 12 10 10 8 9 11 10 4 8 6 10 3 5 4 7 7 8 5
38 38 40 40 38 35 35 35 34 33 33 32 33 34 32 31 30 28 28 25 25 25 21 22 18 16 16 13 12 11 12 13 14 14 9 12 9 12 11 3 4 4 6 8 12
36 39 39 41 41 40 39 38 36 35 34 34 32 33 34 33 32 31 30 27 27 25 21 23 20 17 18 16 16 16 15 18 16 16 14 16 14 11 10 10 8 9 8 11 14
29 34 39 40 40 42 43 41 38 37 36 35 34 33 34 34 33 32 31 31 29 27 25 25 23 20 18 19 21 20 20 20 21 19 17 18 17 13 12 13 12 14 15 16 13
29 31 34 37 41 42 43 45 41 40 39 37 36 35 33 34 33 32 33 30 28 27 26 25 24 22 21 24 25 23 24 22 23 25 23 22 23 17 17 14 15 12 9 10 3
30 31 33 33 38 43 44 44 43 41 39 37 37 36 35 35 33 31 32 31 29 29 28 27 26 28 26 27 29 27 27 26 26 26 24 25 23 19 20 17 15 12 12 11 6
32 33 32 33 36 40 44 43 42 38 38 37 37 37 37 37 36 35 33 33 32 32 33 32 31 30 30 31 30 30 31 30 28 27 25 27 26 21 22 17 10 9 9 9 4
37 35 34 34 35 35 36 41 40 38 37 37 37 38 39 39 39 37 33 35 36 32 34 32 33 32 32 32 33 34 35 34 32 26 24 26 21 20 17 15 5 10 11 12 9
38 39 38 35 34 33 33 36 39 39 38 38 40 41 40 40 38 34 30 31 33 34 33 35 36 32 32 33 32 35 36 36 33 26 25 24 15 14 13 10 9 10 8 8 8
39 39 40 39 36 33 35 35 39 41 41 41 41 41 41 40 38 36 29 28 25 23 24 28 30 32 31 26 28 32 33 36 34 27 20 17 10 6 4 9 12 15 14 12 11
39 38 39 38 39 37 33 37 36 40 41 42 41 41 41 40 39 36 30 27 25 22 23 24 24 29 29 24 29 32 31 34 32 25 26 19 11 6 12 15 12 10 8 10 16
43 40 39 38 39 40 40 35 39 38 43 43 39 40 41 40 39 38 32 28 23 19 24 23 20 25 24 24 33 34 34 30 30 25 28 24 18 12 12 13 10 14 15 6 12
45 44 43 42 41 41 41 40 36 39 39 42 41 42 43 38 40 37 34 27 22 17 20 22 22 22 20 23 29 36 38 29 29 27 22 24 19 20 17 19 5 5 10 11 10
Wind_Direction
191 146 162 169 143 122 133 139 127 118 120 115 108 108 102 108 116 131 149 148 134 124 102 116 136 134 126 134 177 142 137 125 132 130 137 122 109 102 103 142 79 87 91 82 73
220 200 177 183 175 149 136 154 147 134 130 126 127 119 100 107 103 117 133 144 135 128 111 118 111 108 149 89 90 124 92 123 130 139 146 113 94 102 118 110 84 85 92 82 73
228 219 215 187 184 170 154 152 156 147 140 135 136 133 114 111 106 105 108 113 124 128 122 120 114 150 143 116 122 129 122 131 148 137 125 115 101 103 110 107 80 72 84 86 74
224 229 224 206 189 183 168 159 161 154 149 143 144 148 137 109 106 107 106 110 121 125 120 106 105 98 139 124 138 177 146 119 132 138 123 109 105 105 103 95 76 61 60 79 100
223 227 227 223 204 192 180 171 166 164 159 154 145 145 150 122 113 115 109 113 117 123 117 111 130 113 120 118 114 142 122 118 121 131 122 111 103 100 94 98 91 79 63 51 47
224 225 232 230 219 204 192 181 172 171 169 167 163 150 144 134 122 124 115 119 124 118 121 118 133 143 110 115 111 132 113 122 125 126 118 112 101 96 95 100 98 72 60 59 57
221 223 226 232 230 216 207 194 181 175 176 175 170 160 148 144 137 130 133 139 126 118 122 114 124 112 105 112 127 134 120 113 124 120 116 98 101 89 94 111 99 73 61 60 55
224 221 222 227 231 228 214 206 198 185 180 180 176 171 161 160 155 152 145 150 128 128 130 122 125 116 99 109 125 123 124 121 116 110 109 107 96 95 92 116 99 51 54 65 39
230 227 224 223 227 228 225 214 208 199 192 194 185 185 187 185 165 158 168 168 151 138 136 146 133 122 117 115 112 95 106 108 104 95 103 107 111 100 56 27 52 66 39 33 26
233 233 232 230 226 227 229 220 215 208 201 202 196 198 207 193 178 166 164 171 163 149 151 158 142 122 125 130 124 127 109 107 112 117 123 127 155 143 134 102 341 357 5 15 12
235 237 236 237 236 231 229 225 217 214 210 210 207 207 205 201 198 184 182 172 177 170 159 174 173 155 162 114 146 127 116 122 116 111 98 148 166 177 167 91 51 203 263 15 19
237 236 238 239 237 238 234 236 221 216 212 213 213 212 211 204 213 196 184 185 186 194 177 181 203 177 194 191 206 186 167 143 142 155 89 246 126 170 170 151 193 302 277 190 298
237 236 235 236 235 236 235 232 223 221 217 217 217 215 218 215 221 209 200 189 189 194 192 192 210 206 208 238 195 216 225 191 189 187 172 316 311 136 163 127 108 309 296 282 0
235 235 234 235 234 231 230 227 225 223 222 219 219 218 217 216 220 224 213 209 201 202 195 210 208 204 210 220 226 253 252 247 246 242 214 249 269 231 142 161 160 188 197 198 330
235 234 232 232 231 230 227 227 225 223 226 223 222 223 219 220 218 219 223 219 215 216 209 227 227 214 216 232 243 271 280 272 287 289 280 273 264 282 191 194 198 189 222 244 308
235 235 233 231 229 228 227 226 227 223 226 227 224 223 220 217 221 221 222 223 222 225 216 221 225 223 235 241 244 265 277 276 281 286 298 279 278 286 291 207 207 212 270 308 323
235 235 233 232 230 226 227 226 226 226 226 226 228 222 222 219 221 222 225 226 230 233 231 237 237 231 234 240 247 256 262 272 275 273 277 282 286 279 285 298 312 292 270 307 345
236 235 234 232 232 230 228 226 225 225 226 228 228 227 226 227 219 223 226 226 226 228 225 234 240 238 234 238 241 248 255 264 274 272 271 273 275 270 279 278 264 287 302 311 303
236 237 235 232 231 231 230 228 225 226 227 228 229 229 226 230 228 224 227 227 223 226 230 231 239 243 236 238 249 251 255 257 263 268 272 277 278 278 280 276 271 275 306 346 304
237 236 236 234 232 231 229 229 230 228 227 228 229 230 231 231 232 230 228 229 228 229 231 233 231 241 240 245 253 254 257 255 259 264 270 271 274 278 270 268 273 280 275 294 275
237 236 235 234 233 231 229 228 230 229 227 225 229 231 232 233 233 234 232 229 230 230 232 235 236 240 243 248 251 254 252 253 255 258 270 274 282 283 273 278 277 276 269 240 242
238 236 235 234 235 234 230 228 229 228 227 225 224 228 231 234 236 237 239 238 241 239 242 239 243 240 243 246 246 243 245 247 252 259 260 271 283 294 291 291 290 244 260 272 254
235 235 235 235 234 233 229 227 226 226 225 223 224 224 226 229 232 236 237 243 248 253 256 247 249 241 242 243 245 246 242 245 248 245 252 270 280 291 296 291 265 262 232 241 234
233 233 233 234 233 232 230 227 225 225 224 224 223 225 227 226 226 227 224 234 241 244 245 242 235 236 241 243 245 241 236 241 248 240 249 253 262 299 257 283 259 253 245 292 253
234 233 232 232 232 231 231 227 224 225 227 227 226 227 228 230 229 228 220 222 230 242 235 242 243 237 235 230 225 228 231 238 245 248 235 238 230 210 225 235 272 265 265 265 227
234 233 233 231 230 229 229 229 224 221 224 228 225 227 228 230 234 235 232 223 222 224 224 238 242 232 221 217 214 220 221 235 246 245 236 240 224 233 250 271 287 252 248 265 238
233 232 232 230 229 227 227 226 228 225 222 225 222 223 227 226 226 230 232 226 224 229 225 234 237 220 203 206 208 219 222 230 243 253 243 230 236 247 253 275 252 260 237 237 243
Height
5897 5898 5899 5900 5901 5902 5902 5903 5904 5905 5905 5906 5906 5906 5908 5909 5910 5911 5913 5915 5917 5919 5920 5921 5922 5924 5927 5928 5928 5929 5931 5932 5933 5932 5931 5932 5933 5933 5933 5933 5932 5934 5935 5933 5933
5897 5898 5899 5900 5901 5902 5903 5904 5905 5906 5907 5907 5908 5909 5910 5911 5912 5912 5914 5915 5918 5921 5923 5923 5923 5924 5926 5928 5930 5930 5933 5933 5935 5935 5934 5934 5934 5935 5936 5935 5934 5936 5936 5935 5935
5896 5898 5899 5900 5901 5903 5904 5905 5906 5907 5908 5909 5909 5911 5912 5913 5915 5915 5915 5917 5919 5922 5924 5926 5926 5926 5928 5930 5932 5934 5935 5935 5934 5934 5935 5936 5936 5936 5937 5937 5936 5937 5938 5937 5937
5895 5897 5898 5900 5901 5903 5905 5906 5907 5908 5910 5911 5911 5912 5914 5915 5919 5918 5918 5920 5920 5922 5925 5926 5926 5928 5929 5932 5933 5934 5938 5937 5937 5937 5936 5936 5937 5938 5939 5939 5938 5938 5938 5938 5938
5894 5896 5897 5899 5901 5903 5904 5906 5907 5909 5911 5912 5913 5914 5915 5918 5920 5920 5922 5922 5922 5923 5927 5928 5928 5929 5930 5934 5935 5935 5938 5939 5938 5940 5940 5939 5939 5940 5940 5941 5941 5941 5940 5938 5937
5893 5895 5896 5898 5900 5902 5904 5906 5908 5909 5911 5913 5915 5916 5918 5920 5922 5923 5924 5925 5925 5926 5929 5930 5931 5931 5932 5935 5938 5939 5941 5941 5940 5941 5942 5942 5941 5943 5942 5944 5944 5944 5942 5940 5940
5891 5893 5895 5896 5899 5901 5903 5906 5908 5910 5911 5913 5915 5917 5919 5921 5923 5925 5926 5927 5928 5930 5931 5933 5934 5935 5937 5937 5938 5941 5943 5942 5943 5942 5942 5944 5944 5943 5944 5945 5945 5945 5944 5944 5943
5888 5890 5893 5895 5897 5899 5902 5905 5908 5910 5912 5913 5916 5918 5920 5921 5922 5925 5927 5928 5929 5932 5934 5936 5936 5939 5939 5939 5941 5942 5944 5945 5946 5945 5945 5946 5946 5946 5946 5946 5946 5945 5944 5944 5943
5884 5887 5889 5892 5895 5897 5900 5903 5906 5909 5911 5913 5915 5917 5919 5921 5924 5925 5928 5928 5930 5934 5936 5937 5938 5939 5940 5940 5942 5942 5944 5945 5945 5946 5947 5949 5949 5949 5949 5949 5948 5946 5944 5945 5945
5880 5883 5885 5888 5891 5894 5897 5900 5903 5907 5909 5912 5915 5918 5920 5923 5924 5926 5928 5930 5931 5934 5937 5939 5939 5940 5942 5944 5943 5944 5945 5945 5946 5948 5949 5950 5950 5950 5950 5950 5949 5947 5945 5945 5944
5875 5877 5881 5884 5887 5890 5894 5897 5902 5905 5908 5911 5914 5916 5919 5922 5924 5927 5929 5931 5931 5934 5936 5939 5941 5940 5942 5945 5945 5946 5946 5946 5948 5948 5949 5950 5951 5952 5952 5951 5949 5948 5947 5946 5945
5869 5872 5875 5878 5882 5886 5890 5893 5895 5899 5903 5906 5910 5914 5916 5919 5921 5925 5928 5932 5933 5934 5936 5939 5940 5940 5941 5945 5946 5947 5947 5947 5948 5948 5949 5949 5952 5953 5952 5951 5950 5949 5947 5946 5945
5863 5865 5869 5872 5876 5881 5885 5888 5890 5893 5897 5902 5906 5910 5913 5917 5918 5922 5925 5928 5931 5934 5936 5937 5939 5940 5942 5945 5947 5948 5948 5947 5947 5947 5948 5949 5950 5953 5953 5953 5953 5951 5950 5948 5947
5856 5859 5862 5866 5871 5874 5879 5881 5884 5888 5892 5897 5901 5904 5909 5912 5915 5918 5922 5926 5928 5931 5933 5935 5937 5939 5942 5943 5944 5945 5946 5947 5946 5946 5948 5948 5949 5950 5952 5953 5953 5952 5951 5951 5950
5847 5851 5855 5859 5863 5868 5873 5874 5878 5884 5887 5891 5894 5898 5904 5908 5912 5915 5917 5921 5926 5927 5932 5934 5935 5938 5939 5940 5943 5944 5946 5947 5946 5946 5947 5946 5947 5946 5948 5950 5951 5951 5950 5949 5948
5838 5842 5846 5851 5856 5861 5864 5868 5872 5878 5880 5884 5888 5892 5898 5901 5906 5910 5914 5917 5921 5923 5927 5928 5932 5936 5937 5939 5941 5943 5944 5945 5945 5945 5946 5944 5946 5945 5945 5948 5949 5950 5948 5947 5946
5829 5833 5837 5842 5847 5852 5856 5861 5867 5870 5874 5878 5881 5886 5890 5895 5900 5904 5909 5914 5917 5921 5925 5925 5929 5933 5935 5937 5938 5939 5941 5942 5944 5943 5944 5942 5944 5945 5945 5945 5946 5946 5947 5946 5945
5821 5824 5827 5833 5837 5842 5847 5854 5860 5864 5866 5870 5875 5879 5885 5887 5893 5898 5902 5907 5912 5916 5919 5921 5925 5929 5932 5933 5934 5936 5938 5939 5939 5940 5941 5941 5941 5943 5943 5943 5943 5942 5941 5942 5943
5814 5816 5819 5824 5828 5832 5839 5845 5852 5855 5860 5864 5868 5872 5877 5881 5888 5892 5897 5902 5905 5910 5914 5917 5920 5923 5926 5927 5929 5931 5933 5936 5936 5936 5937 5938 5938 5940 5940 5941 5941 5942 5941 5940 5940
5806 5808 5811 5815 5818 5823 5829 5837 5842 5847 5852 5856 5861 5866 5871 5876 5881 5886 5890 5896 5900 5904 5908 5911 5914 5916 5920 5922 5923 5925 5927 5929 5931 5932 5933 5934 5935 5936 5936 5937 5937 5937 5938 5938 5937
5797 5800 5804 5807 5810 5814 5821 5829 5832 5838 5844 5849 5853 5858 5863 5868 5874 5879 5885 5888 5892 5896 5900 5904 5907 5911 5913 5916 5919 5921 5921 5923 5926 5928 5929 5929 5931 5932 5932 5933 5935 5935 5934 5934 5935
5787 5792 5796 5799 5803 5808 5814 5819 5824 5830 5835 5841 5846 5851 5856 5861 5866 5872 5878 5880 5885 5889 5894 5897 5900 5903 5907 5909 5912 5913 5915 5917 5920 5924 5925 5925 5928 5927 5927 5928 5930 5931 5932 5932 5932
5777 5782 5787 5791 5795 5801 5806 5810 5815 5821 5826 5832 5837 5842 5848 5854 5861 5866 5871 5875 5878 5883 5887 5889 5893 5896 5899 5903 5905 5908 5910 5913 5916 5920 5921 5923 5926 5924 5924 5925 5926 5927 5930 5929 5927
5768 5772 5777 5782 5787 5792 5797 5802 5808 5812 5818 5824 5830 5835 5842 5848 5853 5859 5865 5868 5873 5877 5880 5882 5887 5890 5893 5898 5901 5903 5906 5907 5910 5914 5918 5920 5921 5921 5922 5921 5921 5922 5924 5925 5924
5758 5763 5768 5773 5778 5784 5789 5794 5800 5805 5811 5817 5823 5829 5834 5839 5846 5853 5859 5864 5869 5872 5874 5878 5883 5885 5887 5891 5894 5897 5900 5902 5905 5909 5913 5918 5918 5918 5917 5916 5917 5917 5919 5920 5920
5747 5753 5758 5763 5768 5773 5780 5786 5791 5797 5803 5809 5818 5822 5827 5833 5840 5847 5853 5860 5864 5868 5870 5874 5879 5880 5882 5885 5887 5891 5895 5898 5901 5904 5908 5912 5914 5914 5913 5914 5914 5914 5915 5916 5917
5735 5741 5746 5752 5757 5764 5770 5777 5784 5790 5796 5802 5809 5813 5819 5831 5833 5840 5845 5852 5858 5863 5867 5871 5873 5877 5879 5880 5882 5885 5890 5894 5896 5899 5903 5907 5909 5910 5911 5912 5912 5911 5911 5911 5913